owner,sensor,date,latitude,longitude,relative_humidity,qcFlag 
COMPS,ioos:station:USF.COMPS:FHP:1,2019-05-10T15:54:00,28.1530,-82.8010,70.9,11111222 
COMPS,ioos:station:USF.COMPS:FHP:1,2019-05-10T16:54:00,28.1530,-82.8010,63.43,11111222 
COMPS,ioos:station:USF.COMPS:FHP:1,2019-05-10T17:54:00,28.1530,-82.8010,70.24,11111222 
COMPS,ioos:station:USF.COMPS:FHP:1,2019-05-10T18:54:00,28.1530,-82.8010,70.77,11111222 
COMPS,ioos:station:USF.COMPS:FHP:1,2019-05-10T19:54:00,28.1530,-82.8010,77.01,11111222 
COMPS,ioos:station:USF.COMPS:FHP:1,2019-05-10T20:54:00,28.1530,-82.8010,75.48,11111222 
COMPS,ioos:station:USF.COMPS:FHP:1,2019-05-10T21:54:00,28.1530,-82.8010,78.94,11111222 
COMPS,ioos:station:USF.COMPS:FHP:1,2019-05-10T22:54:00,28.1530,-82.8010,81.28,11111222 
COMPS,ioos:station:USF.COMPS:FHP:1,2019-05-10T23:54:00,28.1530,-82.8010,81.78,11111222 
COMPS,ioos:station:USF.COMPS:FHP:1,2019-05-11T00:54:00,28.1530,-82.8010,83.08,11111222 
COMPS,ioos:station:USF.COMPS:FHP:1,2019-05-11T01:54:00,28.1530,-82.8010,83.33,11111222 
COMPS,ioos:station:USF.COMPS:FHP:1,2019-05-11T02:54:00,28.1530,-82.8010,82.56,11111222 
COMPS,ioos:station:USF.COMPS:FHP:1,2019-05-11T03:54:00,28.1530,-82.8010,90.17,11111222 
COMPS,ioos:station:USF.COMPS:FHP:1,2019-05-11T04:54:00,28.1530,-82.8010,92.85,11111222 
COMPS,ioos:station:USF.COMPS:FHP:1,2019-05-11T05:54:00,28.1530,-82.8010,93.34,11111222 
COMPS,ioos:station:USF.COMPS:FHP:1,2019-05-11T06:54:00,28.1530,-82.8010,92.86,11111222 
COMPS,ioos:station:USF.COMPS:FHP:1,2019-05-11T07:54:00,28.1530,-82.8010,90.36,11111222 
COMPS,ioos:station:USF.COMPS:FHP:1,2019-05-11T08:54:00,28.1530,-82.8010,92.46,11111222 
COMPS,ioos:station:USF.COMPS:FHP:1,2019-05-11T09:54:00,28.1530,-82.8010,94.2,11111222 
COMPS,ioos:station:USF.COMPS:FHP:1,2019-05-11T10:54:00,28.1530,-82.8010,95.03,11111222 
COMPS,ioos:station:USF.COMPS:FHP:1,2019-05-11T11:54:00,28.1530,-82.8010,93.68,11111222 
COMPS,ioos:station:USF.COMPS:FHP:1,2019-05-13T12:54:00,28.1530,-82.8010,88.89,11111222 
COMPS,ioos:station:USF.COMPS:FHP:1,2019-05-13T13:54:00,28.1530,-82.8010,87.73,11111222 
COMPS,ioos:station:USF.COMPS:FHP:1,2019-05-13T14:54:00,28.1530,-82.8010,87.81,11111222 
COMPS,ioos:station:USF.COMPS:FHP:1,2019-05-13T15:54:00,28.1530,-82.8010,87.84,11111222 
COMPS,ioos:station:USF.COMPS:FHP:1,2019-05-13T16:54:00,28.1530,-82.8010,90.25,11111222 
COMPS,ioos:station:USF.COMPS:FHP:1,2019-05-13T17:54:00,28.1530,-82.8010,94.85,11111222 
COMPS,ioos:station:USF.COMPS:FHP:1,2019-05-13T18:54:00,28.1530,-82.8010,89.5,11111222 
COMPS,ioos:station:USF.COMPS:FHP:1,2019-05-13T19:54:00,28.1530,-82.8010,89.71,11111222 
COMPS,ioos:station:USF.COMPS:FHP:1,2019-05-13T20:54:00,28.1530,-82.8010,89.85,11111222 
COMPS,ioos:station:USF.COMPS:FHP:1,2019-05-13T21:54:00,28.1530,-82.8010,87.1,11111222 
COMPS,ioos:station:USF.COMPS:FHP:1,2019-05-13T22:54:00,28.1530,-82.8010,79.21,11111222 
COMPS,ioos:station:USF.COMPS:FHP:1,2019-05-13T23:54:00,28.1530,-82.8010,76.86,11111222 
COMPS,ioos:station:USF.COMPS:FHP:1,2019-05-14T00:54:00,28.1530,-82.8010,72.71,11111222 
COMPS,ioos:station:USF.COMPS:FHP:1,2019-05-14T01:54:00,28.1530,-82.8010,72.68,11111222 
COMPS,ioos:station:USF.COMPS:FHP:1,2019-05-14T02:54:00,28.1530,-82.8010,72.94,11111222 
COMPS,ioos:station:USF.COMPS:FHP:1,2019-05-14T03:54:00,28.1530,-82.8010,77.3,11111222 
COMPS,ioos:station:USF.COMPS:FHP:1,2019-05-14T04:54:00,28.1530,-82.8010,79.22,11111222 
COMPS,ioos:station:USF.COMPS:FHP:1,2019-05-14T05:54:00,28.1530,-82.8010,80.45,11111222 
COMPS,ioos:station:USF.COMPS:FHP:1,2019-05-14T06:54:00,28.1530,-82.8010,81.77,11111222 
COMPS,ioos:station:USF.COMPS:FHP:1,2019-05-14T07:54:00,28.1530,-82.8010,82.33,11111222 
COMPS,ioos:station:USF.COMPS:FHP:1,2019-05-14T08:54:00,28.1530,-82.8010,83.37,11111222 
COMPS,ioos:station:USF.COMPS:FHP:1,2019-05-14T09:54:00,28.1530,-82.8010,83.0,11111222 
COMPS,ioos:station:USF.COMPS:FHP:1,2019-05-14T10:54:00,28.1530,-82.8010,83.12,11111222 
COMPS,ioos:station:USF.COMPS:FHP:1,2019-05-14T11:54:00,28.1530,-82.8010,78.41,11111222 
COMPS,ioos:station:USF.COMPS:FHP:1,2019-05-14T12:54:00,28.1530,-82.8010,77.08,11111222 
COMPS,ioos:station:USF.COMPS:FHP:1,2019-05-14T13:54:00,28.1530,-82.8010,77.55,11111222 
COMPS,ioos:station:USF.COMPS:FHP:1,2019-05-14T14:54:00,28.1530,-82.8010,88.29,11111222 
COMPS,ioos:station:USF.COMPS:FHP:1,2019-05-14T15:54:00,28.1530,-82.8010,81.43,11111222 
COMPS,ioos:station:USF.COMPS:FHP:1,2019-05-14T16:54:00,28.1530,-82.8010,75.62,11111222 
COMPS,ioos:station:USF.COMPS:FHP:1,2019-05-14T17:54:00,28.1530,-82.8010,78.93,11111222 
COMPS,ioos:station:USF.COMPS:FHP:1,2019-05-14T18:54:00,28.1530,-82.8010,73.32,11111222 
COMPS,ioos:station:USF.COMPS:FHP:1,2019-05-14T19:54:00,28.1530,-82.8010,71.52,11111222 
COMPS,ioos:station:USF.COMPS:FHP:1,2019-05-14T20:54:00,28.1530,-82.8010,62.55,11111222 
COMPS,ioos:station:USF.COMPS:FHP:1,2019-05-14T21:54:00,28.1530,-82.8010,56.24,11111222 
COMPS,ioos:station:USF.COMPS:FHP:1,2019-05-14T22:54:00,28.1530,-82.8010,59.66,11111222 
COMPS,ioos:station:USF.COMPS:FHP:1,2019-05-14T23:54:00,28.1530,-82.8010,56.77,11111222 
COMPS,ioos:station:USF.COMPS:FHP:1,2019-05-15T00:54:00,28.1530,-82.8010,58.65,11111222 
COMPS,ioos:station:USF.COMPS:FHP:1,2019-05-15T01:54:00,28.1530,-82.8010,58.36,11111222 
COMPS,ioos:station:USF.COMPS:FHP:1,2019-05-15T02:54:00,28.1530,-82.8010,64.68,11111222 
COMPS,ioos:station:USF.COMPS:FHP:1,2019-05-15T03:54:00,28.1530,-82.8010,65.02,11111222 
COMPS,ioos:station:USF.COMPS:FHP:1,2019-05-15T04:54:00,28.1530,-82.8010,59.23,11111222 
COMPS,ioos:station:USF.COMPS:FHP:1,2019-05-15T05:54:00,28.1530,-82.8010,59.78,11111222 
COMPS,ioos:station:USF.COMPS:FHP:1,2019-05-15T06:54:00,28.1530,-82.8010,66.53,11111222 
COMPS,ioos:station:USF.COMPS:FHP:1,2019-05-15T07:54:00,28.1530,-82.8010,70.23,11111222 
COMPS,ioos:station:USF.COMPS:FHP:1,2019-05-15T08:54:00,28.1530,-82.8010,70.62,11111222 
COMPS,ioos:station:USF.COMPS:FHP:1,2019-05-15T09:54:00,28.1530,-82.8010,71.56,11111222 
COMPS,ioos:station:USF.COMPS:FHP:1,2019-05-15T10:54:00,28.1530,-82.8010,70.77,11111222 
COMPS,ioos:station:USF.COMPS:FHP:1,2019-05-15T11:54:00,28.1530,-82.8010,69.91,11111222 
COMPS,ioos:station:USF.COMPS:FHP:1,2019-05-15T12:54:00,28.1530,-82.8010,70.03,11111222 
COMPS,ioos:station:USF.COMPS:FHP:1,2019-05-15T13:54:00,28.1530,-82.8010,69.62,11111222 
COMPS,ioos:station:USF.COMPS:FHP:1,2019-05-15T14:54:00,28.1530,-82.8010,73.65,11111222 
COMPS,ioos:station:USF.COMPS:FHP:1,2019-05-15T15:54:00,28.1530,-82.8010,76.18,11111222 
COMPS,ioos:station:USF.COMPS:FHP:1,2019-05-15T16:54:00,28.1530,-82.8010,77.6,11111222 
COMPS,ioos:station:USF.COMPS:FHP:1,2019-05-15T17:54:00,28.1530,-82.8010,67.03,11111222 
COMPS,ioos:station:USF.COMPS:FHP:1,2019-05-15T18:54:00,28.1530,-82.8010,56.96,11111222 
COMPS,ioos:station:USF.COMPS:FHP:1,2019-05-15T19:54:00,28.1530,-82.8010,55.07,11111222 
COMPS,ioos:station:USF.COMPS:FHP:1,2019-05-15T20:54:00,28.1530,-82.8010,55.76,11111222 
COMPS,ioos:station:USF.COMPS:FHP:1,2019-05-15T21:54:00,28.1530,-82.8010,59.37,11111222 
COMPS,ioos:station:USF.COMPS:FHP:1,2019-05-15T22:54:00,28.1530,-82.8010,64.5,11111222 
COMPS,ioos:station:USF.COMPS:FHP:1,2019-05-15T23:54:00,28.1530,-82.8010,61.41,11111222 
COMPS,ioos:station:USF.COMPS:FHP:1,2019-05-16T00:54:00,28.1530,-82.8010,58.09,11111222 
COMPS,ioos:station:USF.COMPS:FHP:1,2019-05-16T01:54:00,28.1530,-82.8010,61.42,11111222 
COMPS,ioos:station:USF.COMPS:FHP:1,2019-05-16T02:54:00,28.1530,-82.8010,61.92,11111222 
COMPS,ioos:station:USF.COMPS:FHP:1,2019-05-16T03:54:00,28.1530,-82.8010,64.77,11111222 
COMPS,ioos:station:USF.COMPS:FHP:1,2019-05-16T04:54:00,28.1530,-82.8010,73.88,11111222 
COMPS,ioos:station:USF.COMPS:FHP:1,2019-05-16T05:54:00,28.1530,-82.8010,76.83,11111222 
COMPS,ioos:station:USF.COMPS:FHP:1,2019-05-16T06:54:00,28.1530,-82.8010,79.25,11111222 
COMPS,ioos:station:USF.COMPS:FHP:1,2019-05-16T07:54:00,28.1530,-82.8010,81.17,11111222 
COMPS,ioos:station:USF.COMPS:FHP:1,2019-05-16T08:54:00,28.1530,-82.8010,83.69,11111222 
COMPS,ioos:station:USF.COMPS:FHP:1,2019-05-16T09:54:00,28.1530,-82.8010,88.2,11111222 
COMPS,ioos:station:USF.COMPS:FHP:1,2019-05-16T10:54:00,28.1530,-82.8010,85.09,11111222 
COMPS,ioos:station:USF.COMPS:FHP:1,2019-05-16T11:54:00,28.1530,-82.8010,82.31,11111222 
COMPS,ioos:station:USF.COMPS:FHP:1,2019-05-16T12:54:00,28.1530,-82.8010,73.94,11111222 
COMPS,ioos:station:USF.COMPS:FHP:1,2019-05-16T13:54:00,28.1530,-82.8010,68.96,11111222 
COMPS,ioos:station:USF.COMPS:FHP:1,2019-05-16T14:54:00,28.1530,-82.8010,64.77,11111222 
COMPS,ioos:station:USF.COMPS:FHP:1,2019-05-16T15:54:00,28.1530,-82.8010,58.34,11111222 
COMPS,ioos:station:USF.COMPS:FHP:1,2019-05-16T16:54:00,28.1530,-82.8010,52.12,11111222 
COMPS,ioos:station:USF.COMPS:FHP:1,2019-05-16T17:54:00,28.1530,-82.8010,66.07,11111222 
COMPS,ioos:station:USF.COMPS:FHP:1,2019-05-16T18:54:00,28.1530,-82.8010,68.86,11111222 
COMPS,ioos:station:USF.COMPS:FHP:1,2019-05-16T19:54:00,28.1530,-82.8010,69.47,11111222 
COMPS,ioos:station:USF.COMPS:FHP:1,2019-05-16T20:54:00,28.1530,-82.8010,70.54,11111222 
COMPS,ioos:station:USF.COMPS:FHP:1,2019-05-16T21:54:00,28.1530,-82.8010,69.73,11111222 
COMPS,ioos:station:USF.COMPS:FHP:1,2019-05-16T22:54:00,28.1530,-82.8010,69.87,11111222 
COMPS,ioos:station:USF.COMPS:FHP:1,2019-05-16T23:54:00,28.1530,-82.8010,71.14,11111222 
COMPS,ioos:station:USF.COMPS:FHP:1,2019-05-17T00:54:00,28.1530,-82.8010,73.74,11111222 
COMPS,ioos:station:USF.COMPS:FHP:1,2019-05-17T01:54:00,28.1530,-82.8010,73.6,11111222 
COMPS,ioos:station:USF.COMPS:FHP:1,2019-05-17T02:54:00,28.1530,-82.8010,75.83,11111222 
COMPS,ioos:station:USF.COMPS:FHP:1,2019-05-17T03:54:00,28.1530,-82.8010,59.88,11111222 
COMPS,ioos:station:USF.COMPS:FHP:1,2019-05-17T04:54:00,28.1530,-82.8010,63.26,11111222 
COMPS,ioos:station:USF.COMPS:FHP:1,2019-05-17T05:54:00,28.1530,-82.8010,67.05,11111222 
COMPS,ioos:station:USF.COMPS:FHP:1,2019-05-17T06:54:00,28.1530,-82.8010,69.46,11111222 
COMPS,ioos:station:USF.COMPS:FHP:1,2019-05-17T07:54:00,28.1530,-82.8010,72.73,11111222 
COMPS,ioos:station:USF.COMPS:FHP:1,2019-05-17T08:54:00,28.1530,-82.8010,75.62,11111222 
COMPS,ioos:station:USF.COMPS:FHP:1,2019-05-17T09:54:00,28.1530,-82.8010,76.98,11111222 
COMPS,ioos:station:USF.COMPS:FHP:1,2019-05-17T10:54:00,28.1530,-82.8010,77.65,11111222 
COMPS,ioos:station:USF.COMPS:FHP:1,2019-05-17T11:54:00,28.1530,-82.8010,74.46,11111222 
COMPS,ioos:station:USF.COMPS:FHP:1,2019-05-17T12:54:00,28.1530,-82.8010,74.31,11111222 
COMPS,ioos:station:USF.COMPS:FHP:1,2019-05-17T13:54:00,28.1530,-82.8010,62.85,11111222 
COMPS,ioos:station:USF.COMPS:FHP:1,2019-05-17T14:54:00,28.1530,-82.8010,50.39,11111222 
COMPS,ioos:station:USF.COMPS:FHP:1,2019-05-17T15:54:00,28.1530,-82.8010,49.67,11111222 
COMPS,ioos:station:USF.COMPS:FHP:1,2019-05-17T16:54:00,28.1530,-82.8010,50.73,11111222 
COMPS,ioos:station:USF.COMPS:FHP:1,2019-05-17T17:54:00,28.1530,-82.8010,51.68,11111222 
COMPS,ioos:station:USF.COMPS:FHP:1,2019-05-17T18:54:00,28.1530,-82.8010,58.8,11111222 
COMPS,ioos:station:USF.COMPS:FHP:1,2019-05-17T19:54:00,28.1530,-82.8010,62.42,11111222 
COMPS,ioos:station:USF.COMPS:FHP:1,2019-05-17T20:54:00,28.1530,-82.8010,56.76,11111222 
COMPS,ioos:station:USF.COMPS:FHP:1,2019-05-17T21:54:00,28.1530,-82.8010,60.16,11111222 
COMPS,ioos:station:USF.COMPS:FHP:1,2019-05-17T22:54:00,28.1530,-82.8010,58.95,11111222 
COMPS,ioos:station:USF.COMPS:FHP:1,2019-05-17T23:54:00,28.1530,-82.8010,62.84,11111222 
COMPS,ioos:station:USF.COMPS:FHP:1,2019-05-18T00:54:00,28.1530,-82.8010,64.17,11111222 
COMPS,ioos:station:USF.COMPS:FHP:1,2019-05-18T01:54:00,28.1530,-82.8010,69.98,11111222 
COMPS,ioos:station:USF.COMPS:FHP:1,2019-05-18T02:54:00,28.1530,-82.8010,71.14,11111222 
COMPS,ioos:station:USF.COMPS:FHP:1,2019-05-18T03:54:00,28.1530,-82.8010,61.68,11111222 
COMPS,ioos:station:USF.COMPS:FHP:1,2019-05-18T04:54:00,28.1530,-82.8010,60.94,11111222 
COMPS,ioos:station:USF.COMPS:FHP:1,2019-05-18T05:54:00,28.1530,-82.8010,62.32,11111222 
COMPS,ioos:station:USF.COMPS:FHP:1,2019-05-18T06:54:00,28.1530,-82.8010,66.83,11111222 
COMPS,ioos:station:USF.COMPS:FHP:1,2019-05-18T07:54:00,28.1530,-82.8010,73.55,11111222 
COMPS,ioos:station:USF.COMPS:FHP:1,2019-05-18T08:54:00,28.1530,-82.8010,76.94,11111222 
COMPS,ioos:station:USF.COMPS:FHP:1,2019-05-18T09:54:00,28.1530,-82.8010,78.5,11111222 
COMPS,ioos:station:USF.COMPS:FHP:1,2019-05-18T10:54:00,28.1530,-82.8010,81.9,11111222 
COMPS,ioos:station:USF.COMPS:FHP:1,2019-05-18T11:54:00,28.1530,-82.8010,78.27,11111222 
COMPS,ioos:station:USF.COMPS:FHP:1,2019-05-18T12:54:00,28.1530,-82.8010,76.18,11111222 
COMPS,ioos:station:USF.COMPS:FHP:1,2019-05-18T13:54:00,28.1530,-82.8010,69.28,11111222 
COMPS,ioos:station:USF.COMPS:FHP:1,2019-05-18T14:54:00,28.1530,-82.8010,64.23,11111222 
COMPS,ioos:station:USF.COMPS:FHP:1,2019-05-18T15:54:00,28.1530,-82.8010,60.75,11111222 
COMPS,ioos:station:USF.COMPS:FHP:1,2019-05-18T16:54:00,28.1530,-82.8010,54.91,11111222 
COMPS,ioos:station:USF.COMPS:FHP:1,2019-05-18T17:54:00,28.1530,-82.8010,62.81,11111222 
COMPS,ioos:station:USF.COMPS:FHP:1,2019-05-18T18:54:00,28.1530,-82.8010,60.24,11111222 
COMPS,ioos:station:USF.COMPS:FHP:1,2019-05-18T19:54:00,28.1530,-82.8010,55.5,11111222 
COMPS,ioos:station:USF.COMPS:FHP:1,2019-05-18T20:54:00,28.1530,-82.8010,55.01,11111222 
COMPS,ioos:station:USF.COMPS:FHP:1,2019-05-18T21:54:00,28.1530,-82.8010,62.92,11111222 
COMPS,ioos:station:USF.COMPS:FHP:1,2019-05-18T22:54:00,28.1530,-82.8010,64.93,11111222 
COMPS,ioos:station:USF.COMPS:FHP:1,2019-05-18T23:54:00,28.1530,-82.8010,65.81,11111222 
COMPS,ioos:station:USF.COMPS:FHP:1,2019-05-19T00:54:00,28.1530,-82.8010,70.63,11111222 
COMPS,ioos:station:USF.COMPS:FHP:1,2019-05-19T01:54:00,28.1530,-82.8010,53.28,11111222 
COMPS,ioos:station:USF.COMPS:FHP:1,2019-05-19T02:54:00,28.1530,-82.8010,52.65,11111222 
COMPS,ioos:station:USF.COMPS:FHP:1,2019-05-19T03:54:00,28.1530,-82.8010,57.58,11111222 
COMPS,ioos:station:USF.COMPS:FHP:1,2019-05-19T04:54:00,28.1530,-82.8010,64.77,11111222 
COMPS,ioos:station:USF.COMPS:FHP:1,2019-05-19T05:54:00,28.1530,-82.8010,68.57,11111222 
COMPS,ioos:station:USF.COMPS:FHP:1,2019-05-19T06:54:00,28.1530,-82.8010,72.2,11111222 
COMPS,ioos:station:USF.COMPS:FHP:1,2019-05-19T07:54:00,28.1530,-82.8010,76.29,11111222 
COMPS,ioos:station:USF.COMPS:FHP:1,2019-05-19T08:54:00,28.1530,-82.8010,79.94,11111222 
COMPS,ioos:station:USF.COMPS:FHP:1,2019-05-19T09:54:00,28.1530,-82.8010,83.84,11111222 
COMPS,ioos:station:USF.COMPS:FHP:1,2019-05-19T10:54:00,28.1530,-82.8010,85.14,11111222 
COMPS,ioos:station:USF.COMPS:FHP:1,2019-05-19T11:54:00,28.1530,-82.8010,83.31,11111222 
COMPS,ioos:station:USF.COMPS:FHP:1,2019-05-19T12:54:00,28.1530,-82.8010,81.35,11111222 
COMPS,ioos:station:USF.COMPS:FHP:1,2019-05-19T13:54:00,28.1530,-82.8010,75.72,11111222 
COMPS,ioos:station:USF.COMPS:FHP:1,2019-05-19T14:54:00,28.1530,-82.8010,73.49,11111222 
COMPS,ioos:station:USF.COMPS:FHP:1,2019-05-19T15:54:00,28.1530,-82.8010,69.46,11111222 
COMPS,ioos:station:USF.COMPS:FHP:1,2019-05-19T16:54:00,28.1530,-82.8010,70.38,11111222 
COMPS,ioos:station:USF.COMPS:FHP:1,2019-05-19T17:54:00,28.1530,-82.8010,70.5,11111222 
COMPS,ioos:station:USF.COMPS:FHP:1,2019-05-19T18:54:00,28.1530,-82.8010,70.05,11111222 
COMPS,ioos:station:USF.COMPS:FHP:1,2019-05-19T19:54:00,28.1530,-82.8010,67.05,11111222 
COMPS,ioos:station:USF.COMPS:FHP:1,2019-05-19T20:54:00,28.1530,-82.8010,69.72,11111222 
COMPS,ioos:station:USF.COMPS:FHP:1,2019-05-19T21:54:00,28.1530,-82.8010,75.82,11111222 
COMPS,ioos:station:USF.COMPS:FHP:1,2019-05-19T22:54:00,28.1530,-82.8010,70.56,11111222 
COMPS,ioos:station:USF.COMPS:FHP:1,2019-05-19T23:54:00,28.1530,-82.8010,70.78,11111222 
COMPS,ioos:station:USF.COMPS:FHP:1,2019-05-20T00:54:00,28.1530,-82.8010,72.13,11111222 
COMPS,ioos:station:USF.COMPS:FHP:1,2019-05-20T01:54:00,28.1530,-82.8010,70.54,11111222 
COMPS,ioos:station:USF.COMPS:FHP:1,2019-05-20T02:54:00,28.1530,-82.8010,68.91,11111222 
COMPS,ioos:station:USF.COMPS:FHP:1,2019-05-20T03:54:00,28.1530,-82.8010,74.23,11111222 
COMPS,ioos:station:USF.COMPS:FHP:1,2019-05-20T04:54:00,28.1530,-82.8010,71.96,11111222 
COMPS,ioos:station:USF.COMPS:FHP:1,2019-05-20T05:54:00,28.1530,-82.8010,69.14,11111222 
COMPS,ioos:station:USF.COMPS:FHP:1,2019-05-20T06:54:00,28.1530,-82.8010,75.08,11111222 
COMPS,ioos:station:USF.COMPS:FHP:1,2019-05-20T07:54:00,28.1530,-82.8010,79.82,11111222 
COMPS,ioos:station:USF.COMPS:FHP:1,2019-05-20T08:54:00,28.1530,-82.8010,83.84,11111222 
COMPS,ioos:station:USF.COMPS:FHP:1,2019-05-20T09:54:00,28.1530,-82.8010,85.67,11111222 
COMPS,ioos:station:USF.COMPS:FHP:1,2019-05-20T10:54:00,28.1530,-82.8010,87.63,11111222 
COMPS,ioos:station:USF.COMPS:FHP:1,2019-05-20T11:54:00,28.1530,-82.8010,81.93,11111222 
COMPS,ioos:station:USF.COMPS:FHP:1,2019-05-20T12:54:00,28.1530,-82.8010,76.83,11111222 
COMPS,ioos:station:USF.COMPS:FHP:1,2019-05-20T13:54:00,28.1530,-82.8010,70.41,11111222 
COMPS,ioos:station:USF.COMPS:FHP:1,2019-05-20T14:54:00,28.1530,-82.8010,68.91,11111222 
COMPS,ioos:station:USF.COMPS:FHP:1,2019-05-20T15:54:00,28.1530,-82.8010,64.26,11111222 
COMPS,ioos:station:USF.COMPS:FHP:1,2019-05-20T16:54:00,28.1530,-82.8010,73.26,11111222 
COMPS,ioos:station:USF.COMPS:FHP:1,2019-05-20T17:54:00,28.1530,-82.8010,73.34,11111222 
COMPS,ioos:station:USF.COMPS:FHP:1,2019-05-20T18:54:00,28.1530,-82.8010,71.36,11111222 
COMPS,ioos:station:USF.COMPS:FHP:1,2019-05-20T19:54:00,28.1530,-82.8010,72.13,11111222 
COMPS,ioos:station:USF.COMPS:FHP:1,2019-05-20T20:54:00,28.1530,-82.8010,74.33,11111222 
COMPS,ioos:station:USF.COMPS:FHP:1,2019-05-20T21:54:00,28.1530,-82.8010,73.42,11111222 
COMPS,ioos:station:USF.COMPS:FHP:1,2019-05-20T22:54:00,28.1530,-82.8010,71.3,11111222 
COMPS,ioos:station:USF.COMPS:FHP:1,2019-05-20T23:54:00,28.1530,-82.8010,70.51,11111222 
COMPS,ioos:station:USF.COMPS:FHP:1,2019-05-21T00:54:00,28.1530,-82.8010,69.69,11111222 
COMPS,ioos:station:USF.COMPS:FHP:1,2019-05-21T01:54:00,28.1530,-82.8010,72.19,11111222 
COMPS,ioos:station:USF.COMPS:FHP:1,2019-05-21T02:54:00,28.1530,-82.8010,72.83,11111222 
COMPS,ioos:station:USF.COMPS:FHP:1,2019-05-21T03:54:00,28.1530,-82.8010,74.61,11111222 
COMPS,ioos:station:USF.COMPS:FHP:1,2019-05-21T04:54:00,28.1530,-82.8010,75.0,11111222 
COMPS,ioos:station:USF.COMPS:FHP:1,2019-05-21T05:54:00,28.1530,-82.8010,77.3,11111222 
COMPS,ioos:station:USF.COMPS:FHP:1,2019-05-21T06:54:00,28.1530,-82.8010,77.86,11111222 
COMPS,ioos:station:USF.COMPS:FHP:1,2019-05-21T07:54:00,28.1530,-82.8010,80.38,11111222 
COMPS,ioos:station:USF.COMPS:FHP:1,2019-05-21T08:54:00,28.1530,-82.8010,82.95,11111222 
COMPS,ioos:station:USF.COMPS:FHP:1,2019-05-21T09:54:00,28.1530,-82.8010,84.43,11111222 
COMPS,ioos:station:USF.COMPS:FHP:1,2019-05-21T10:54:00,28.1530,-82.8010,86.2,11111222 
COMPS,ioos:station:USF.COMPS:FHP:1,2019-05-21T11:54:00,28.1530,-82.8010,83.27,11111222 
COMPS,ioos:station:USF.COMPS:FHP:1,2019-05-21T12:54:00,28.1530,-82.8010,80.52,11111222 
COMPS,ioos:station:USF.COMPS:FHP:1,2019-05-21T13:54:00,28.1530,-82.8010,75.41,11111222 
COMPS,ioos:station:USF.COMPS:FHP:1,2019-05-21T14:54:00,28.1530,-82.8010,71.45,11111222 
COMPS,ioos:station:USF.COMPS:FHP:1,2019-05-21T15:54:00,28.1530,-82.8010,70.7,11111222 
COMPS,ioos:station:USF.COMPS:FHP:1,2019-05-21T16:54:00,28.1530,-82.8010,78.94,11111222 
COMPS,ioos:station:USF.COMPS:FHP:1,2019-05-21T17:54:00,28.1530,-82.8010,81.61,11111222 
COMPS,ioos:station:USF.COMPS:FHP:1,2019-05-21T18:54:00,28.1530,-82.8010,77.59,11111222 
COMPS,ioos:station:USF.COMPS:FHP:1,2019-05-21T19:54:00,28.1530,-82.8010,76.68,11111222 
COMPS,ioos:station:USF.COMPS:FHP:1,2019-05-21T20:54:00,28.1530,-82.8010,74.02,11111222 
COMPS,ioos:station:USF.COMPS:FHP:1,2019-05-21T21:54:00,28.1530,-82.8010,72.06,11111222 
COMPS,ioos:station:USF.COMPS:FHP:1,2019-05-21T22:54:00,28.1530,-82.8010,72.94,11111222 
COMPS,ioos:station:USF.COMPS:FHP:1,2019-05-21T23:54:00,28.1530,-82.8010,73.95,11111222 
COMPS,ioos:station:USF.COMPS:FHP:1,2019-05-22T00:54:00,28.1530,-82.8010,78.04,11111222 
COMPS,ioos:station:USF.COMPS:FHP:1,2019-05-22T01:54:00,28.1530,-82.8010,77.92,11111222 
COMPS,ioos:station:USF.COMPS:FHP:1,2019-05-22T02:54:00,28.1530,-82.8010,76.48,11111222 
COMPS,ioos:station:USF.COMPS:FHP:1,2019-05-22T03:54:00,28.1530,-82.8010,80.88,11111222 
COMPS,ioos:station:USF.COMPS:FHP:1,2019-05-22T04:54:00,28.1530,-82.8010,82.14,11111222 
COMPS,ioos:station:USF.COMPS:FHP:1,2019-05-22T05:54:00,28.1530,-82.8010,80.95,11111222 
COMPS,ioos:station:USF.COMPS:FHP:1,2019-05-22T06:54:00,28.1530,-82.8010,79.38,11111222 
COMPS,ioos:station:USF.COMPS:FHP:1,2019-05-22T07:54:00,28.1530,-82.8010,79.16,11111222 
COMPS,ioos:station:USF.COMPS:FHP:1,2019-05-22T08:54:00,28.1530,-82.8010,80.98,11111222 
COMPS,ioos:station:USF.COMPS:FHP:1,2019-05-22T09:54:00,28.1530,-82.8010,83.37,11111222 
COMPS,ioos:station:USF.COMPS:FHP:1,2019-05-22T10:54:00,28.1530,-82.8010,84.67,11111222 
COMPS,ioos:station:USF.COMPS:FHP:1,2019-05-22T11:54:00,28.1530,-82.8010,82.32,11111222 
COMPS,ioos:station:USF.COMPS:FHP:1,2019-05-22T12:54:00,28.1530,-82.8010,78.07,11111222 
COMPS,ioos:station:USF.COMPS:FHP:1,2019-05-22T13:54:00,28.1530,-82.8010,77.66,11111222 
COMPS,ioos:station:USF.COMPS:FHP:1,2019-05-22T14:54:00,28.1530,-82.8010,76.1,11111222 
COMPS,ioos:station:USF.COMPS:FHP:1,2019-05-22T15:54:00,28.1530,-82.8010,73.75,11111222 
COMPS,ioos:station:USF.COMPS:FHP:1,2019-05-22T16:54:00,28.1530,-82.8010,74.37,11111222 
COMPS,ioos:station:USF.COMPS:FHP:1,2019-05-22T17:54:00,28.1530,-82.8010,69.79,11111222 
COMPS,ioos:station:USF.COMPS:FHP:1,2019-05-22T18:54:00,28.1530,-82.8010,70.26,11111222 
COMPS,ioos:station:USF.COMPS:FHP:1,2019-05-22T19:54:00,28.1530,-82.8010,71.11,11111222 
COMPS,ioos:station:USF.COMPS:FHP:1,2019-05-22T20:54:00,28.1530,-82.8010,76.29,11111222 
COMPS,ioos:station:USF.COMPS:FHP:1,2019-05-22T21:54:00,28.1530,-82.8010,74.61,11111222 
COMPS,ioos:station:USF.COMPS:FHP:1,2019-05-22T22:54:00,28.1530,-82.8010,76.72,11111222 
COMPS,ioos:station:USF.COMPS:FHP:1,2019-05-22T23:54:00,28.1530,-82.8010,76.19,11111222 
COMPS,ioos:station:USF.COMPS:FHP:1,2019-05-23T00:54:00,28.1530,-82.8010,47.4,11111222 
COMPS,ioos:station:USF.COMPS:FHP:1,2019-05-23T01:54:00,28.1530,-82.8010,51.83,11111222 
COMPS,ioos:station:USF.COMPS:FHP:1,2019-05-23T02:54:00,28.1530,-82.8010,58.02,11111222 
COMPS,ioos:station:USF.COMPS:FHP:1,2019-05-23T03:54:00,28.1530,-82.8010,62.73,11111222 
COMPS,ioos:station:USF.COMPS:FHP:1,2019-05-23T04:54:00,28.1530,-82.8010,67.39,11111222 
COMPS,ioos:station:USF.COMPS:FHP:1,2019-05-23T05:54:00,28.1530,-82.8010,71.06,11111222 
COMPS,ioos:station:USF.COMPS:FHP:1,2019-05-23T06:54:00,28.1530,-82.8010,73.97,11111222 
COMPS,ioos:station:USF.COMPS:FHP:1,2019-05-23T07:54:00,28.1530,-82.8010,79.94,11111222 
COMPS,ioos:station:USF.COMPS:FHP:1,2019-05-23T08:54:00,28.1530,-82.8010,81.23,11111222 
COMPS,ioos:station:USF.COMPS:FHP:1,2019-05-23T09:54:00,28.1530,-82.8010,84.51,11111222 
COMPS,ioos:station:USF.COMPS:FHP:1,2019-05-23T10:54:00,28.1530,-82.8010,85.97,11111222 
COMPS,ioos:station:USF.COMPS:FHP:1,2019-05-23T11:54:00,28.1530,-82.8010,78.67,11111222 
COMPS,ioos:station:USF.COMPS:FHP:1,2019-05-23T12:54:00,28.1530,-82.8010,70.18,11111222 
COMPS,ioos:station:USF.COMPS:FHP:1,2019-05-23T13:54:00,28.1530,-82.8010,60.77,11111222 
COMPS,ioos:station:USF.COMPS:FHP:1,2019-05-23T14:54:00,28.1530,-82.8010,50.47,11111222 
COMPS,ioos:station:USF.COMPS:FHP:1,2019-05-23T15:54:00,28.1530,-82.8010,39.17,11111222 
COMPS,ioos:station:USF.COMPS:FHP:1,2019-05-23T16:54:00,28.1530,-82.8010,43.62,11111222 
COMPS,ioos:station:USF.COMPS:FHP:1,2019-05-23T17:54:00,28.1530,-82.8010,45.65,11111222 
COMPS,ioos:station:USF.COMPS:FHP:1,2019-05-23T18:54:00,28.1530,-82.8010,47.07,11111222 
COMPS,ioos:station:USF.COMPS:FHP:1,2019-05-23T19:54:00,28.1530,-82.8010,49.94,11111222 
COMPS,ioos:station:USF.COMPS:FHP:1,2019-05-23T20:54:00,28.1530,-82.8010,73.59,11111222 
COMPS,ioos:station:USF.COMPS:FHP:1,2019-05-23T21:54:00,28.1530,-82.8010,70.12,11111222 
COMPS,ioos:station:USF.COMPS:FHP:1,2019-05-23T22:54:00,28.1530,-82.8010,51.16,11111222 